User: anonymous   Login
Location: Wildcat Hills Observatory
(41.6350°N, 103.6812°W)
Time: 07:15:55
(UTC-07:00)
Language:

Cosmos 1634 Rocket - Orbit

View from above orbital plane
View from above orbital plane
View from above satellite
View from above satellite

Ground track
Ground track

The orbit data is extracted from the following two-line orbital elements,

1 15598U 85022B   15023.54149866 -.00000009  00000-0 -24634-4 0  8150
2 15598 082.9356 037.9400 0022725 041.5955 119.5625 13.76504311500008
Epoch (UTC): 23 January 2015 12:59:45
Eccentricity: 0.0022725
inclination: 82.9356°
perigee height: 959 km
apogee height: 993 km
right ascension of ascending node: 37.9400°
argument of perigee: 41.5955°
revolutions per day: 13.76504311
mean anomaly at epoch: 119.5625°
orbit number at epoch: 50000

The dashed part of the orbit path shows where the satellite is in the earth's shadow,  

DLR